Location: Normandy Village
(37.8755°N, 122.2655°W)
Time: 15:01:10
(UTC+00:00)

SJ-12 - Pass Details

Date: 22 September 2019
Orbit: 568 x 587 km, 97.6° (Epoch: 19 October)

Event Time Altitude Azimuth Distance (km) Brightness Sun altitude
Rises 13:20:22 0° 13° (NNE) 2,777 7.7 -8.0°
Reaches altitude 10° 13:22:32 10° 14° (NNE) 1,875 6.8 -7.6°
Maximum altitude 13:26:35 80° 101° (E) 582 4.1 -6.8°
Drops below altitude 10° 13:30:37 10° 189° (S) 1,860 6.4 -6.0°
Sets 13:32:45 0° 191° (S) 2,754 7.2 -5.6°
